Preview of NWS' New Version of Forecast
This preview is not operational and should not be used for support decisions.

Regional Weather Roundup (RWR)

Issued by National Weather Service (NWS)

                            
000
ASUS42 KTBW 210517
RWRFL 
FLORIDA REGIONAL WEATHER ROUNDUP
NATIONAL WEATHER SERVICE TAMPA BAY RUSKIN FL
100 AM EDT SAT SEP 21 2019

NOTE: "FAIR" INDICATES FEW OR NO CLOUDS BELOW 12,000 FEET WITH NO
SIGNIFICANT WEATHER AND/OR OBSTRUCTIONS TO VISIBILITY.

FLZ001>010-012>015-112-114-115-210600-
PANHANDLE FLORIDA
  
CITY           SKY/WX    TMP DP  RH WIND       PRES   REMARKS
PENSACOLA      FAIR      76  75  97 NE5       30.15S                  
PENSACOLA NAS  FAIR      73  71  93 N3        30.14S                  
MILTON NAS     FAIR      68  65  90 N5        30.16S                  
CRESTVIEW      FAIR      66  62  87 CALM      30.18S                  
DUKE FIELD     FAIR      67  65  91 NE3       30.16S                  
VALPARAISO     FAIR      72  67  82 N3        30.15S                  
MARY ESTHER    FAIR      71  67  90 N3        30.14S                  
PANAMA CITY    FAIR      75  61  61 NE8       30.15S                  
TYNDALL AFB    FAIR      76  62  62 E7        30.14S                  
APALACHICOLA   FAIR      81  66  60 E10G21    30.14S                  

STATION/POSITION SKY/WX   TEMP    WIND        PRES    WAVE   SWELL
                          AIR SEA DIR/SP/G            HT/PER HT/PER
                          (F)     (DEG/KT/KT) (MB)    (FT/S) (FT/S)
30.1N   87.6W              84 85   90/ 14/ 16 1020.3F   5/ 7   3/ 7
29.2N   88.2W              83     100/ 17/ 21 1019.6F   6/ 7   3/ 7
28.8N   86.0W                 85  110/ 19/ 25 1019.4F   6/ 6
PANAMA CITY BEAC           80 84  100/  9/ 13 1021.4
TOWER C                    81     110/ 25/ 27 1020.7F
28.5N   84.5W              82      90/ 19/ 25 1020.2F   7/ 7

$$
FLZ011-016>038-118-127-128-134-139-239-210600-
NORTH FLORIDA
  
CITY           SKY/WX    TMP DP  RH WIND       PRES   REMARKS
MARIANNA       FAIR      73  65  75 E5        30.18R                  
TALLAHASSEE    FAIR      74  67  78 E8        30.19R                  
PERRY          FAIR      72  69  91 E3        30.20S                  
LIVE OAK       PTCLDY    70  70 100 NE5       30.20S                  
CROSS CITY       N/A     72  66  83 NE5       30.18S                  
LAKE CITY      FAIR      68  68 100 CALM      30.20S                  
GAINESVILLE    FAIR      68  66  93 CALM      30.20F                  
WILLISTON      FAIR      71  68  91 NE5       30.17F                  
PALATKA        MOCLDY    72  66  83 E5        30.18F                  
MAYPORT NAS    MOCLDY    80  66  62 E15       30.19F                  
JACKSONVILLE   FAIR      71  68  90 CALM      30.19F                  
JAX NAS        FAIR      74  68  81 E6        30.20S                  
JAX CECIL      CLOUDY    72  70  94 CALM      30.19F                  
FERNANDINA BEA FAIR      78  66  65 E13       30.20F                  
ST AUGUSTINE   FAIR     N/A N/A N/A E17       30.19F                  
PALM COAST     FAIR      77  65  67 E9        30.17F                  

STATION/POSITION SKY/WX   TEMP    WIND        PRES    WAVE   SWELL
                          AIR SEA DIR/SP/G            HT/PER HT/PER
                          (F)     (DEG/KT/KT) (MB)    (FT/S) (FT/S)
SHELL POINT      NOT AVBL
KEATON BEACH               71      40/  6/  8 1022.0F
CEDAR KEY                  76      80/ 13/ 15 1021.6F
FERNANDINA                 84 81   80/  5/  9 1023.6
30.7N   81.3W                 82                N/A     6/ 6   2/14
MAYPORT                    80 81   80/ 11/ 15 1023.1
31.4N   80.9W              79 81  100/ 12/ 14 1023.0R   5/ 7   3/ 7
ST AUGUSTINE               79 80  100/ 23/ 28 1022.2F

$$
FLZ040-043>046-052-053-057-058-063-144-210600-
INTERIOR CENTRAL FLORIDA
  
CITY           SKY/WX    TMP DP  RH WIND       PRES   REMARKS
OCALA          FAIR      71  68  90 NE3       30.18F                  
LEESBURG       FAIR      73  67  81 NE6       30.17F                  
SANFORD        FAIR      73  66  78 E6        30.16S                  
ORLANDO EXEC   FAIR      73  66  78 NE6       30.15F                  
ORLANDO INTL   FAIR      74  66  76 NE9       30.15S                  
KISSIMMEE      FAIR      76  68  76 NE9       30.15F                  
WINTER HAVEN   FAIR      73  66  78 NE7       30.15S                  
BARTOW           N/A     73  66  78 NE7       30.13S                  
SEBRING        FAIR      71  67  88 NE6       30.12S                  
OKEECHOBEE     FAIR      72  66  83 NE5       30.10F                  

$$
FLZ041-047-054-059-064-141-147-210600-
EAST CENTRAL FLORIDA
  
CITY           SKY/WX    TMP DP  RH WIND       PRES   REMARKS
DAYTONA BEACH  FAIR      79  64  60 E10       30.17S                  
DELAND         FAIR      73  66  78 E5        30.16F                  
JFK SPACE CTR  CLEAR     77  66  68 E9G20     30.14F                  
CAPE CANAVERAL FAIR      79  66  64 E14G21    30.13F                  
PATRICK AFB    FAIR      80  66  62 E20G25    30.12F                  
MELBOURNE      FAIR      80  66  62 E18       30.12F                  
VERO BEACH     FAIR      80  65  59 E13       30.11F                  
FT PIERCE      CLOUDY    79  65  62 E12G22    30.10F                  
STUART         FAIR      79  63  57 E18G24    30.11S                  

STATION/POSITION SKY/WX   TEMP    WIND        PRES    WAVE   SWELL
                          AIR SEA DIR/SP/G            HT/PER HT/PER
                          (F)     (DEG/KT/KT) (MB)    (FT/S) (FT/S)
28.5N   80.2W              81 83   80/ 17/ 25 1020.9F   9/14   7/14
28.9N   78.5W              79 81   70/ 19/ 25 1021.6F  12/15  10/15
TRIDENT PIER               79 82   60/ 13/ 17 1022.2F
28.4N   80.5W                 82                N/A     6/ 7   2/13
27.5N   80.2W                 82                N/A    10/14   7/14

$$
FLZ050-056-061-142-242-148-248-149-249-151-251-155-255-
160-260-210600-
WEST CENTRAL FLORIDA
  
CITY           SKY/WX    TMP DP  RH WIND       PRES   REMARKS
CRYSTAL RIVER  FAIR      70  64  83 CALM      30.16F                  
INVERNESS      FAIR      70  70 100 NE3       30.16F                  
BROOKSVILLE    FAIR      72  65  78 NE6       30.15F                  
CLEARWATER AIR FAIR      73  64  73 E8        30.13S                  
ST PETE CLEARW FAIR      78  65  63 NE12      30.12F                  
TAMPA INTL     FAIR      75  65  70 VRB5      30.13F                  
TAMPA EXEC     FAIR      70  66  88 NE6       30.14S                  
PLANT CITY     FAIR      73  68  83 NE6       30.15F                  
MACDILL AFB    FAIR      74  65  74 E13       30.12F                  
PETER O KNIGHT MOCLDY    73  68  83 NE7       30.13F                  
ST PETERSBURG  FAIR      79  68  69 E20       30.10F                  
SARASOTA       FAIR      76  66  71 NE7       30.08F                  
VENICE         FAIR      75  70  83 NE10      30.10S                  

STATION/POSITION SKY/WX   TEMP    WIND        PRES    WAVE   SWELL
                          AIR SEA DIR/SP/G            HT/PER HT/PER
                          (F)     (DEG/KT/KT) (MB)    (FT/S) (FT/S)
27.3N   84.2W                 85                N/A     9/ 7
CLEARWATER BEACH           77 85   60/  8/ 13 1020.4
MIDDLE TAMPA BAY           77      80/ 15/ 18 1020.2
VENICE                     74 85   50/  9/ 11 1018.8F

$$
FLZ066-069-070-075>078-162-262-165-265-210600-
SOUTHWEST FLORIDA AND KEYS
  
CITY           SKY/WX    TMP DP  RH WIND       PRES   REMARKS
PUNTA GORDA    FAIR      72  70  93 NE8       30.10F                  
FT MYERS       FAIR      75  68  78 NE9       30.06F                  
SOUTHWEST INTL FAIR      74  68  81 NE10      30.07F                  
NAPLES         FAIR      78  70  76 NE14      30.05S                  
MARCO ISLAND   FAIR      76  69  79 NE8       30.06S                  
IMMOKALEE      CLOUDY    75  68  78 NE8       30.05S                  
MARATHON       LGT RAIN  79  76  90 E17G24    29.99F FOG              
KEY WEST NAS   LGT RAIN  78  73  84 E22G31    29.99S                  
KEY WEST INTL  MOCLDY    81  76  84 NE15G21   29.99F                  

STATION/POSITION SKY/WX   TEMP    WIND        PRES    WAVE   SWELL
                          AIR SEA DIR/SP/G            HT/PER HT/PER
                          (F)     (DEG/KT/KT) (MB)    (FT/S) (FT/S)
NAPLES                     78 84   60/  7/ 14 1017.6
26.0N   85.6W              81 86   90/ 21/ 29 1017.0
DRY TORTUGAS               83      90/ 29/ 31 1015.9S
SAND KEY                   80      80/ 24/ 30 1013.9
SOMBRERO KEY               82      60/ 23/ 29 1014.1
LONG KEY                   83                 1014.5

$$
FLZ067-068-071>074-168-172>174-210600-
SOUTHEAST FLORIDA 
  
CITY           SKY/WX    TMP DP  RH WIND       PRES   REMARKS
W PALM BEACH   LGT RAIN  79  70  74 E20G28    30.08F                  
FT LAUDER-EXEC FAIR      80  69  69 E16G30    30.05F                  
FT LAUDERDALE  FAIR      80  68  66 E22G30    30.04F                  
POMPANO BEACH  MOCLDY    81  68  64 E23G31    30.06F                  
PEMBROKE PINES MOCLDY    82  69  64 NE18G26   30.06F                  
OPA LOCKA      MOCLDY    81  69  67 E16G26    30.05F                  
MIAMI          MOCLDY    82  68  62 E16G26    30.04F                  
WEST KENDALL   RAIN      81  72  74 E15G29    30.02F                  
HOMESTEAD      CLOUDY    81  74  77 NE16G29   30.01S                  

STATION/POSITION SKY/WX   TEMP    WIND        PRES    WAVE   SWELL
                          AIR SEA DIR/SP/G            HT/PER HT/PER
                          (F)     (DEG/KT/KT) (MB)    (FT/S) (FT/S)
PORT EVERGLADES            82      60/ 22/ 30 1017.7
VIRGINIA KEY               82 83   40/ 19/ 26 1016.6
LAKE WORTH                 81 81   60/ 25/ 28 1019.6F
FOWEY ROCKS                82 84   70/ 27/ 30 1017.0R
SETTLEMENT POINT           80      70/ 21/ 24 1018.7F

$$